www.pogodaiklimat.ru

Погода и климат >> Архив погоды >> Россия >> Свердловская область >> Таборы


ПОГОДА в Таборах

  • Прогноз погоды в Таборах
  • Монитор погоды в Таборах
  • Климат города

АРХИВ ПОГОДЫ в Таборах

Время (UTC), дата Ветер
(напр.,м/с)
 
Видим.   Явления Облачность Т
(С)
Тd
(С)
f
(%)
Тe
(С)
Тes
(С)
Комфортность P
(гПа)
Po
(гПа)
Тmin
(С)
Tmax
(С)
R
(мм)
R24
(мм)
S
(см)
18 9.08 С 4 50 км 10/0
[Ac trans Ci fib]
+11.0 +5.9 71 +9 +9 1013.0 1005.5
21 9.08 СЗ 4 50 км 10/0
[Ci fib]
+9.2 +6.0 80 +6 +6 1012.9 1005.4
00 10.08 СЗ 4 50 км 10/0
[Ci fib]
+8.0 +5.7 85 +5 +5 1013.6 1006.0
03 10.08 С 6 50 км 8/4 300 м
[Cb cap Ci fib]
+10.4 +5.5 72 +7 +8 1013.3 1005.8 +7.8
06 10.08 СЗ 5
{11}
50 км 4/4 600 м
[Cu hum]
+12.2 +4.6 60 +10 +13 1013.8 1006.4
09 10.08 СЗ 5
{11}
50 км 6/6 600 м
[Cu hum]
+15.4 +4.5 48 +14 +17 1013.2 1005.9
12 10.08 СЗ 6-10
{10}
50 км 8/8 600 м
[Cu hum]
+16.4 +3.6 42 +15 +16 1012.9 1005.6
15 10.08 С 3
{11}
50 км 8/4 600 м
[Sc Ac trans]
+14.3 +5.5 55 +14 +14 1012.9 1005.5 +17.0
18 10.08 З 3 50 км 8/0
[Ac trans Ci fib]
+7.9 +5.3 84 +5 +5 1013.1 1005.5
21 10.08 З 3 50 км 3/0
[Ac trans]
+6.9 +4.8 86 +4 +4 1012.6 1005.0
00 11.08 С 2 50 км 9/0
[Ac trans Ci fib]
+6.1 +4.5 89 +4 +4 1012.8 1005.2
03 11.08 С 3 50 км 8/0
[Ac trans Ci fib]
+10.0 +4.3 68 +8 +10 1013.1 1005.6 +4.6
06 11.08 С 4 50 км 9/3 600 м
[Cu hum Ci]
+13.0 +3.8 54 +11 +15 1012.7 1005.3
09 11.08 СЗ 5
{12}
50 км 8/6 1000 м
[Cu hum Ci fib]
+16.2 +3.7 43 +15 +17 1011.9 1004.6
12 11.08 СЗ 3
{10}
50 км 6/6 1000 м
[Cu hum]
+16.5 +3.7 42 +16 +18 1011.6 1004.3
15 11.08 СЗ 1 50 км 3/1 600 м
[Sc diur, vesp Ci fib]
+14.5 +5.0 53 +15 +15 1011.7 1004.3 +17.2
18 11.08 ЮЗ 1 50 км 3/0
[Ci fib]
+5.6 +4.5 93 +4 +4 1012.0 1004.4
21 11.08 штиль 0 50 км 3/0
[Ci fib]
+4.0 +2.9 93 +3 +3 1011.5 1003.9
00 12.08 штиль 0 50 км 8/0
[Ac trans Ci fib]
+5.4 +3.9 90 +4 +4 1010.6 1003.0
03 12.08 Ю 1 50 км 10/0
[Ac trans Ci fib]
+13.3 +7.6 68 +14 +15 1009.4 1002.1 +3.8
06 12.08 Ю 5
{19}
50 км 8/0
[Ci sp]
+17.7 +7.3 50 +17 +22 1008.3 1001.0
09 12.08 Ю 5
{12}
50 км 10/0
[Ac trans Cs]
+20.4 +6.0 39 +21 +24 комфорт 1006.5 999.3
12 12.08 ЮВ 3 15 км слабый ливневой дождь 10/8 450 м
[Cb cap Ac und]
+16.4 +13.1 81 +16 +16 1006.5 999.2
15 12.08 ЮВ 2 50 км {ливн. осадки} 10/4 300 м
[Cb cap Ac und]
+15.7 +12.3 80 +16 +16 1006.2 998.9 +20.9
18 12.08 В 1 6000 м слабый ливневой дождь 10/10 360 м
[Cb cap]
+14.3 +13.1 92 +15 +15 1006.3 999.0
21 12.08 ЮВ 1 50 км {ливн. осадки} 10/10 400 м
[Cb cap]
+14.2 +13.1 93 +14 +14 1005.9 998.6
00 13.08 ЮВ 4 50 км {ливн. осадки} 10/10 300 м
[St]
+12.2 +10.8 91 +10 +10 1006.9 999.5
03 13.08 В 5 8000 м слабый ливневой дождь 10/10 300 м
[Cb cap]
+11.3 +9.9 91 +9 +9 1008.6 1001.2 +11.3 9
06 13.08 СВ 4 н/о морось {ливн. осадки} 10/10 330 м
[St]
+10.9 +9.6 92 +8 +8 1011.5 1004.0 +10.8
09 13.08 СВ 4 5000 м морось 10/10 400 м
[St]
+11.2 +10.1 93 +9 +9 1014.0 1006.6
12 13.08 СВ 5 6000 м слабый дождь {морось} 10/8 400 м
[Frnb As op]
+11.1 +9.8 92 +8 +8 1016.1 1008.7
15 13.08 СВ 4 50 км {дождь} 10/4 300 м
[Frnb Ac As]
+10.9 +8.8 87 +8 +8 1018.0 1010.5 +11.6 9
18 13.08 СВ 2 50 км {дождь} 10/0
[Ac und]
+10.9 +8.8 87 +10 +10 1019.8 1012.3
21 13.08 СВ 4 50 км 10/0
[Ac und]
+10.9 +9.0 88 +8 +8 1020.1 1012.6
00 14.08 СВ 1 50 км 10/0
[Ac und]
+10.9 +8.8 87 +11 +11 1021.2 1013.6
03 14.08 СВ 3
{10}
50 км 5/5 600 м
[Sc diur, vesp]
+12.9 +10.0 83 +12 +13 1022.0 1014.6 +10.6
06 14.08 СВ 2 50 км 9/5 600 м
[Cu hum Ac trans Cc]
+16.5 +11.3 71 +17 +20 1022.8 1015.4
09 14.08 ЮВ 2 50 км 8/1 1000 м
[Cu hum Ci]
+20.5 +13.1 62 +23 +31 комфорт 1022.6 1015.3
12 14.08 ЮВ 2 50 км 8/3 600 м
[Cu hum Ci fib]
+22.0 +13.8 60 +25 +27 комфорт 1022.5 1015.1
15 14.08 штиль 0 50 км 8/0
[Ci sp]
+16.7 +15.1 90 +17 +17 1022.3 1014.9 +23.1
18 14.08 штиль 0 50 км 9/0
[Ac trans]
+14.9 +13.9 94 +15 +15 1022.6 1015.2
21 14.08 штиль 0 2000 м дымка 10/0
[Cs]
+13.8 +13.0 95 +13 +13 1022.7 1015.3
00 15.08 Ю 1 1300 м дымка 8/0
[Ac trans Ci sp]
+11.0 +10.3 95 +11 +11 1022.9 1015.4
03 15.08 ЮЗ 1 6000 м дымка {туман} 8/0
[Ci sp]
+14.9 +14.0 94 +15 +18 1022.8 1015.4 +10.4
06 15.08 З 3 50 км {туман} 10/3 1000 м
[Cu hum Ci fib]
+22.2 +15.4 65 +26 +30 душно 1022.1 1014.9
09 15.08 З 3 50 км 10/4 600 м
[Cu med, cong Ci fib]
+24.4 +14.0 52 +27 +31 жарко 1021.3 1014.2
12 15.08 ЮЗ 4 50 км 9/3 1000 м
[Cu hum Ci fib]
+24.8 +11.4 43 +26 +28 жарко 1020.2 1013.1
15 15.08 Ю 2 50 км 9/0
[Ci fib]
+20.8 +13.2 62 +24 +24 комфорт 1019.7 1012.5 +25.4
18 15.08 ЮЗ 3 50 км 8/0
[Ac trans Ci fib]
+17.9 +12.4 70 +18 +18 1019.5 1012.2
21 15.08 ЮЗ 4 50 км 6/0
[Ac trans Ci fib]
+15.6 +11.8 78 +15 +15 1018.8 1011.4
00 16.08 ЮЗ 2 50 км 6/0
[Ac cast Ci fib]
+13.6 +11.6 88 +13 +13 1018.8 1011.4
03 16.08 З 2 50 км 6/0
[Ac cast Ci fib]
+17.6 +13.4 76 +18 +20 1019.0 1011.7 +13.5
06 16.08 З 5
{10}
50 км 8/3 600 м
[Cu hum Ci fib]
+22.2 +13.8 59 +25 +28 комфорт 1018.8 1011.6
09 16.08 СЗ 5 9000 м слабый ливневой дождь 10/10 420 м
[Cb cap]
+18.1 +15.3 84 +18 +18 1020.2 1012.8
12 16.08 СЗ 5 50 км {ливн. осадки} 4/3 600 м
[Cu hum Ci fib]
+20.2 +10.2 53 +22 +23 комфорт 1021.2 1013.9
15 16.08 З 2 50 км 3/0
[Ci fib]
+16.7 +10.5 67 +17 +17 1022.0 1014.6 +22.7

 

Местоположение метеостанции Таборы (Свердловская область, Россия): широта 58.53 долгота 64.50 высота над уровнем моря 63 м.

В архиве по умолчанию представлена погода в Таборах за последнюю неделю. Архивные данные за месяц целиком и за предыдущие месяцы, начиная с января 2011 года, Вы можете получить, выбрав интересующий диапазон дат из раскрывающегося списка и нажав кнопку "Ввод!".

Внимание! Время в таблицах - всемирное. Для получения местного времени необходимо прибавить поправку, которая в Таборах равна 5 ч.

Смотрите также архив погоды в соседних городах и на ближайших метеорологических станциях:

Погода в Тавде (Свердловская область, Россия) (68 км)
Погода в Туринске (Свердловская область, Россия) (72 км)
Погода в Куминской (Ханты-Мансийский АО, Россия) (94 км)
Погода в Ирбите (Свердловская область, Россия) (135 км)
Погода в Леушах (Ханты-Мансийский АО, Россия) (141 км)
Погода в Гари (Свердловская область, Россия) (160 км)
Погода в Тугулыме (Свердловская область, Россия) (163 км)
Погода в Тюмени (Тюменская область, Россия) (166 км)
Погода в Алапаевске (Свердловская область, Россия) (180 км)
Погода в Ярково (Тюменская область, Россия) (196 км)

Пояснения к столбцам:

Ветер - указаны скорость ветра в м/с - средняя за 10 мин, порывы в срок и между сроками (в фигурных скобках) и направление, откуда дует ветер: С - северный, СВ - северо-восточный, В - восточный, ЮВ - юго-восточный, Ю - южный, ЮЗ - юго-западный, З - западный, СЗ - северо-западный.
Видимость - горизонтальная дальность видимости в метрах или километрах. При видимости от 1 до 10 км при отсутствии осадков обычно наблюдается дымка, при ухудшении видимости до 1 км и менее - туман. В сухую погоду видимость может ухудшаться дымом, пылью или мглою.
Явления - указаны атмосферные явления, наблюдавшиеся в срок или в последний час перед сроком; фигурными скобками обозначены явления, наблюдавшиеся между сроками (за 1-3 часа до срока); квадратными скобками обозначены град или гололедные отложения с указанием их диаметра в мм.
Облачность - указаны через наклонную черту общая и нижняя облачность в баллах и высота нижней границы облаков в метрах; квадратными скобками обозначены формы облаков: Ci - перистые, Cs - перисто-слоистые, Cc - перисто-кучевые, Ac - высококучевые, As - высокослоистые, Sc - слоисто-кучевые, Ns - слоисто-дождевые, Cu - кучевые, Cb - кучево-дождевые. Подробнее классификацию облаков см. в Атласе облаков (PDF).
T - Температура воздуха - температура, измеренная на высоте 2 м над землей.
Td - Температура точки росы - температура, при понижении до которой содержащийся в воздухе водяной пар достигнет насыщения.
f - Относительная влажность воздуха - влажноcть воздуха, измеренная на высоте 2 м над землей.
Te - Эффективная температура - температура, которую ощущает одетый по сезону человек в тени. Характеристика душности погоды. При расчете учитывается влияние влажности воздуха и скорости ветра на теплоощущения человека.
Tes - Эффективная температура на солнце - температура, которую ощущает человек, с поправкой на солнечный нагрев. Характеристика знойности погоды. Зависит от высоты солнца над горизонтом, облачности и скорости ветра. Ночью, в пасмурную погоду, а также при ветре 12 м/с и более поправка равна нулю.
P - Атмосферное давление - приведенное к уровню моря атмосферное давление.
Po - Атмосферное давление - измеренное на уровне метеостанции атмосферное давление.
Tmin - Минимальная температура - минимум температуры воздуха на высоте 2 м над землей.
Tmax - Максимальная температура - максимум температуры воздуха на высоте 2 м над землей.
R - Количество осадков - Количество выпавших осадков за период времени, мм. При наведении курсора мыши на число - период времени, за который выпало указанное количество осадков.
R24 - Количество осадков - Количество выпавших осадков за 24 часа, мм.
S - Снежный покров - Высота снежного покрова, см. При наведении курсора мыши на число - состояние снежного покрова и степень покрытия местности в баллах.